Weather observations for the past three days for
Alamogordo-White
Imperial (Metric)
Date Time (mdt) Wind (mph) Vis. (mi.) Weather Sky Cond. Temperature (ºF) Relative Humidity Wind Chill (°F) Heat Index (°F) Pressure Precipitation (in)
Air Dwpt 6 hour altimeter (in) sea level (mb) 1 hr 3 hr 6 hr
Max. Min.
12 18:35 S 7 10.00 Fair CLR 95 33.8 11% 90 30.07 0.0
12 18:15 Vrbl 5 10.00 Fair CLR 95 33.8 11% 90 30.07 0.0
12 17:55 S 13 G 21 10.00 Fair CLR 96.8 35.6 12% 92 30.07 0.0
12 17:35 SW 14 G 21 10.00 Fair CLR 96.8 33.8 11% 92 30.07 0.0
12 17:15 SW 13 G 29 10.00 Fair CLR 96.8 33.8 11% 92 30.08 0.0
12 16:55 S 16 10.00 Fair CLR 95 35.6 12% 90 30.08 0.0
12 16:35 S 14 G 25 10.00 Fair CLR 96.8 33.8 11% 92 30.09 0.0
12 16:15 SW 9 10.00 Fair CLR 95 33.8 11% 90 30.1 0.0
12 15:55 W 15 G 23 10.00 Fair CLR 96.8 35.6 12% 92 30.1 0.0
12 15:35 W 9 G 18 10.00 Fair CLR 96.8 35.6 12% 92 30.11 0.0
12 15:15 W 17 10.00 A Few Clouds FEW120 95 35.6 12% 90 30.12 0.0
12 14:55 S 12 G 21 10.00 A Few Clouds FEW120 93.2 35.6 13% 89 30.13 0.0
12 14:35 Vrbl 3 G 14 10.00 Fair CLR 95 35.6 12% 90 30.14 0.0
12 14:15 NW 8 10.00 Fair CLR 93.2 35.6 13% 89 30.14 0.0
12 13:55 SW 13 10.00 Fair CLR 93.2 35.6 13% 89 30.15 0.0
12 13:35 S 10 G 16 10.00 Fair CLR 93.2 35.6 13% 89 30.16 0.0
12 13:15 SW 12 G 20 10.00 Fair CLR 91.4 35.6 14% 87 30.16 0.0
12 12:55 Calm 10.00 Fair CLR 89.6 35.6 15% 86 30.18 0.0
12 12:35 Vrbl 5 10.00 Fair CLR 87.8 35.6 16% 84 30.19 0.0
12 12:15 SW 9 10.00 Fair CLR 91.4 39.2 16% 87 30.2 0.0
12 11:55 Vrbl 6 10.00 Fair CLR 87.8 39.2 18% 84 30.21 0.0
12 11:35 Calm 10.00 Fair CLR 87.8 41 19% 84 30.21 0.0
12 11:15 S 7 G 14 10.00 Fair CLR 62.6 19.4 19% 30.22 0.0
12 10:55 Vrbl 5 10.00 Fair CLR 64.4 23 21% 30.22 0.0
12 10:35 Calm 10.00 Fair CLR 62.6 21.2 20% 30.23 0.0
12 10:15 Calm 10.00 Fair CLR 33.8 -0.4 23% 30.23 0.0
12 09:55 NW 6 10.00 Fair CLR 82.4 41 23% 80 30.24 0.0
12 09:35 W 6 10.00 Fair CLR 82.4 41 23% 80 30.23 0.0
12 09:15 W 8 10.00 Fair CLR 82.4 42.8 25% 80 30.23 0.0
12 08:55 NW 5 10.00 Fair CLR 80.6 39.2 23% 79 30.23 0.0
12 08:35 N 6 10.00 Fair CLR 75.2 37.4 25% 77 30.23 0.0
12 08:15 NW 6 10.00 Fair CLR 77 39.2 26% 77 30.23 0.0
12 07:55 N 5 10.00 Fair CLR 78.8 42.8 28% 78 30.23 0.0
12 07:35 N 6 10.00 Fair CLR 75.2 41 29% 77 30.23 0.0
12 07:15 NE 5 10.00 Fair CLR 71.6 41 33% 30.22 0.0
12 06:55 N 6 10.00 Fair CLR 69.8 41 35% 30.21 0.0
12 06:35 NE 8 10.00 Fair CLR 66.2 41 40% 30.21 0.0
12 06:15 NE 8 10.00 Fair CLR 64.4 41 43% 30.2 0.0
12 05:55 NE 6 10.00 Fair CLR 68 41 38% 30.2 0.0
12 05:35 N 7 10.00 A Few Clouds FEW044 FEW050 FEW055 68 41 38% 30.2 0.0
12 05:15 NE 6 10.00 Mostly Cloudy SCT044 BKN050 68 41 38% 30.2 0.0
12 04:55 N 7 10.00 A Few Clouds FEW043 FEW050 68 41 38% 30.19 0.0
12 04:35 N 10 10.00 A Few Clouds FEW047 FEW050 69.8 41 35% 30.18 0.0
12 04:15 N 9 10.00 A Few Clouds FEW050 69.8 41 35% 30.18 0.0
12 03:55 NW 5 10.00 Fair CLR 71.6 41 33% 30.17 0.0
12 03:35 NW 9 10.00 Fair CLR 77 41 28% 78 30.16 0.0
12 03:15 N 3 10.00 A Few Clouds FEW045 75.2 42.8 31% 77 30.16 0.0
12 02:55 S 14 10.00 Fair CLR 77 42.8 30% 78 30.15 0.0
12 02:35 S 13 10.00 Fair CLR 78.8 41 26% 78 30.15 0.0
12 02:15 S 10 10.00 Fair CLR 78.8 41 26% 78 30.15 0.0
12 01:55 S 10 G 17 10.00 Fair CLR 80.6 41 24% 79 30.15 0.0
12 01:35 S 10 G 18 10.00 Fair CLR 78.8 42.8 28% 78 30.16 0.0
12 01:15 S 14 G 21 10.00 Fair CLR 80.6 42.8 26% 79 30.15 0.0
12 00:55 S 13 10.00 Fair CLR 78.8 42.8 28% 78 30.15 0.0
12 00:35 S 13 10.00 Fair CLR 80.6 42.8 26% 79 30.15 0.0
12 00:15 S 16 10.00 Fair CLR 80.6 41 24% 79 30.15 0.0
11 23:55 SE 14 10.00 Fair CLR 78.8 41 26% 78 30.14 0.0
11 23:35 S 10 10.00 Fair CLR 78.8 41 26% 78 30.14 0.0
11 23:15 SE 6 10.00 Fair CLR 78.8 39.2 24% 78 30.14 0.0
11 22:55 SW 3 10.00 Fair CLR 78.8 37.4 23% 78 30.14 0.0
11 22:35 Calm 10.00 Fair CLR 78.8 37.4 23% 78 30.13 0.0
11 22:15 S 8 10.00 Fair CLR 78.8 35.6 21% 78 30.13 0.0
11 21:55 Calm 10.00 Fair CLR 78.8 37.4 23% 78 30.12 0.0
11 21:35 Calm 10.00 Fair CLR 80.6 37.4 21% 79 30.12 0.0
11 21:15 Calm 10.00 Fair CLR 80.6 37.4 21% 79 30.12 0.0
11 20:55 SE 6 10.00 Fair CLR 82.4 41 23% 80 30.11 0.0
11 20:35 S 7 10.00 Partly Cloudy SCT110 78.8 37.4 23% 78 30.1 0.0
11 20:15 SW 6 10.00 Partly Cloudy SCT110 84.2 37.4 19% 81 30.1 0.0
11 19:55 SW 5 10.00 Fair CLR 33.8 -5.8 18% 30 30.09 0.0
11 19:35 SW 7 10.00 Fair CLR 19.4 -20.2 15% 11 30.09 0.0
11 19:15 Vrbl 7 10.00 Fair CLR 24.8 -16.6 15% 18 30.08 0.0
11 18:55 S 8 10.00 Fair CLR 26.6 -13 17% 19 30.08 0.0
11 18:35 W 5 10.00 Fair CLR 28.4 -13 15% 24 30.08 0.0
11 18:15 Vrbl 5 10.00 Fair CLR 15.8 -22 16% 9 30.09 0.0
11 17:55 Vrbl 5 G 12 10.00 Fair CLR 19.4 -20.2 15% 14 30.09 0.0
11 17:35 SE 7 G 14 10.00 Fair CLR 39.2 -2.2 17% 35 30.09 0.0
11 17:15 S 10 10.00 Fair CLR 91.4 41 17% 87 30.09 0.0
11 16:55 S 13 10.00 Fair CLR 91.4 41 17% 87 30.1 0.0
11 16:35 S 8 G 17 10.00 Fair CLR 77 28.4 17% 77 30.1 0.0
11 16:15 Calm 10.00 Fair CLR 84.2 35.6 18% 81 30.11 0.0
11 15:55 N 7 G 16 10.00 Fair CLR 64.4 17.6 16% 30.12 0.0
11 15:35 N 12 10.00 Fair CLR 14 -23.8 16% 1 30.13 0.0
11 15:15 NE 9 G 18 10.00 Fair CLR 87.8 39.2 18% 84 30.14 0.0
11 14:55 NE 10 10.00 Fair CLR 82.4 35.6 19% 80 30.15 0.0
11 14:35 E 18 G 28 10.00 A Few Clouds FEW055 FEW070 FEW100 80.6 37.4 21% 79 30.16 0.0
11 14:15 SE 8 G 17 10.00 Partly Cloudy FEW100 SCT120 82.4 39.2 21% 80 30.17 0.0
11 13:55 SE 16 10.00 Partly Cloudy SCT095 87.8 42.8 21% 84 30.17 0.0
11 13:35 E 16 10.00 Mostly Cloudy BKN090 87.8 44.6 22% 85 30.17 0.0
11 13:15 SW 8 G 15 10.00 Fair CLR 89.6 44.6 21% 86 30.18 0.0
11 12:55 SW 7 G 16 10.00 Fair CLR 87.8 44.6 22% 85 30.19 0.0
11 12:35 SW 10 10.00 Fair CLR 77 37.4 24% 77 30.2 0.0
11 12:15 Vrbl 5 G 12 10.00 Fair CLR 75.2 35.6 24% 76 30.2 0.0
11 11:55 SW 10 10.00 Fair CLR 87.8 48.2 25% 85 30.21 0.0
11 11:35 Vrbl 5 G 13 10.00 Fair CLR 84.2 46.4 27% 82 30.21 0.0
11 10:55 W 5 G 14 10.00 Fair CLR 78.8 39.2 24% 78 30.21 0.0
11 10:35 W 7 10.00 Fair CLR 84.2 46.4 27% 82 30.21 0.0
11 10:15 SW 6 10.00 Fair CLR 84.2 46.4 27% 82 30.21 0.0
11 09:55 Vrbl 6 10.00 Fair CLR 82.4 46.4 28% 81 30.22 0.0
11 09:35 Calm 10.00 Fair CLR 80.6 46.4 30% 80 30.22 0.0
11 09:15 Calm 10.00 Fair CLR 80.6 46.4 30% 80 30.22 0.0
11 08:55 Calm 10.00 Fair CLR 78.8 46.4 32% 79 30.22 0.0
11 08:35 Calm 10.00 Fair CLR 75.2 48.2 39% 77 30.22 0.0
11 08:15 Calm 10.00 Fair CLR 73.4 50 44% 30.22 0.0
11 07:55 SE 5 10.00 Fair CLR 71.6 50 47% 30.23 0.0
11 07:35 Calm 10.00 Fair CLR 68 50 53% 30.22 0.0
11 07:15 S 5 10.00 Fair CLR 66.2 51.8 60% 30.21 0.0
11 06:55 SE 5 10.00 Fair CLR 62.6 48.2 60% 30.21 0.0
11 06:35 E 3 10.00 Fair CLR 60.8 48.2 63% 30.21 0.0
11 06:15 E 5 10.00 Fair CLR 59 48.2 68% 30.2 0.0
11 05:55 SE 6 10.00 A Few Clouds FEW043 FEW050 55.4 46.4 72% 30.2 0.0
11 05:35 Calm 10.00 Mostly Cloudy FEW033 BKN041 BKN050 59 46.4 63% 30.19 0.0
11 05:15 Calm 10.00 Overcast BKN035 BKN045 OVC050 57.2 46.4 67% 30.18 0.0
11 04:55 Calm 10.00 Overcast BKN036 OVC045 62.6 46.4 56% 30.18 0.0
11 04:35 W 3 10.00 Overcast FEW033 BKN039 OVC047 62.6 46.4 56% 30.19 0.0
11 04:15 Calm 10.00 Overcast SCT036 BKN041 OVC055 62.6 48.2 60% 30.19 0.0
11 03:55 E 7 10.00 Mostly Cloudy FEW033 BKN041 BKN050 62.6 48.2 60% 30.19 0.0
11 03:35 N 7 10.00 Mostly Cloudy FEW043 SCT050 BKN055 68 48.2 49% 30.19 0.0
11 03:15 Calm 10.00 Partly Cloudy FEW048 SCT055 64.4 50 60% 30.19 0.0
11 02:55 Calm 10.00 Partly Cloudy FEW042 SCT048 62.6 48.2 60% 30.18 0.0
11 02:35 SE 5 10.00 Mostly Cloudy SCT040 BKN047 62.6 48.2 60% 30.19 0.0
11 02:15 SE 6 10.00 Mostly Cloudy BKN040 BKN046 62.6 48.2 60% 30.19 0.0
11 01:55 Calm 10.00 Partly Cloudy FEW040 SCT046 64.4 48.2 56% 30.19 0.0
11 01:35 SE 7 10.00 Fair CLR 62.6 46.4 56% 30.19 0.0
11 01:15 N 8 10.00 Fair CLR 69.8 48.2 46% 30.19 0.0
11 00:35 NW 10 10.00 Fair CLR 71.6 48.2 44% 30.19 0.0
11 00:15 N 10 10.00 Fair CLR 69.8 50 50% 30.2 0.0
10 23:35 N 10 10.00 Fair CLR 69.8 50 50% 30.18 0.0
10 23:15 N 10 10.00 Fair CLR 53.6 35.6 51% 30.18 0.0
10 22:55 N 10 10.00 Fair CLR 39.2 21.2 48% 33 30.17 0.0
10 22:35 N 10 10.00 Fair CLR 73.4 48.2 41% 30.17 0.0
10 22:15 S 9 10.00 Fair CLR 75.2 44.6 34% 77 30.14 0.0
10 21:55 S 13 10.00 Fair CLR 75.2 44.6 34% 77 30.13 0.0
10 21:35 S 13 10.00 Fair CLR 75.2 46.4 36% 77 30.13 0.0
10 21:15 S 14 10.00 Fair CLR 73.4 48.2 41% 30.12 0.0
10 20:55 SE 12 10.00 Fair CLR 75.2 50 41% 78 30.13 0.0
10 20:35 S 9 10.00 A Few Clouds FEW060 FEW070 FEW110 75.2 51.8 44% 78 30.12 0.0
10 20:15 Calm 10.00 A Few Clouds FEW055 FEW090 FEW110 77 51.8 42% 78 30.14 0.0
10 19:55 Vrbl 9 G 17 9.00 Light Rain FEW042 SCT070 OVC110 77 50 39% 78 30.15 0.0
10 19:35 NW 3 10.00 Mostly Cloudy FEW065 SCT080 BKN110 80.6 44.6 28% 79 30.16 0.0
10 19:15 N 9 G 15 9.00 Overcast FEW055 SCT070 OVC110 78.8 46.4 32% 79 30.15 0.0
10 18:55 N 23 G 32 10.00 Overcast and Breezy OVC110 78.8 39.2 24% 78 30.16 0.0
10 18:35 E 15 G 29 10.00 Thunderstorm in Vicinity SCT110 78.8 33.8 20% 78 30.12 0.0
10 18:15 E 18 G 30 10.00 Fair CLR 77 32 19% 77 30.1 0.0
10 17:55 E 23 G 31 10.00 Fair and Breezy CLR 84.2 39.2 20% 81 30.09 0.0
10 17:35 E 25 G 33 10.00 Fair and Breezy CLR 80.6 37.4 21% 79 30.09 0.0
10 17:15 E 31 9.00 A Few Clouds and Windy FEW100 80.6 37.4 21% 79 30.09 0.0
10 16:55 E 10 G 21 10.00 Mostly Cloudy BKN095 87.8 42.8 21% 84 30.09 0.0
10 16:35 NE 9 G 26 10.00 Thunderstorm in Vicinity SCT095 89.6 44.6 21% 86 30.1 0.0
10 16:15 S 8 G 17 10.00 Partly Cloudy SCT095 93.2 44.6 19% 89 30.09 0.0
10 15:55 S 10 G 20 10.00 Fair CLR 91.4 44.6 20% 88 30.09 0.0
10 15:35 SE 5 G 13 10.00 Fair CLR 91.4 44.6 20% 88 30.1 0.0
10 15:15 E 15 G 22 10.00 Fair CLR 91.4 42.8 18% 88 30.11 0.0
10 14:55 E 15 G 23 10.00 Partly Cloudy SCT090 SCT110 91.4 42.8 18% 88 30.11 0.0
10 14:35 E 16 10.00 A Few Clouds FEW090 93.2 42.8 17% 89 30.12 0.0
10 14:15 SW 9 G 16 10.00 Fair CLR 93.2 48.2 21% 90 30.13 0.0
10 13:55 Vrbl 5 G 12 10.00 A Few Clouds FEW080 91.4 51.8 26% 89 30.14 0.0
10 13:35 Calm 10.00 Partly Cloudy SCT075 89.6 51.8 27% 87 30.15 0.0
10 13:15 Vrbl 5 G 13 10.00 Fair CLR 91.4 51.8 26% 89 30.15 0.0
10 12:55 SW 8 G 17 10.00 Thunderstorm in Vicinity CLR 89.6 51.8 27% 87 30.16 0.0
10 12:35 SW 8 G 16 10.00 Fair CLR 62.6 30.2 30% 30.16 0.0
10 12:15 Vrbl 8 10.00 Fair CLR 19.4 -9.4 27% 10 30.18 0.0
10 11:55 SW 8 G 15 10.00 Fair CLR 86 50 29% 84 30.18 0.0
10 11:35 S 10 G 17 10.00 Fair CLR 84.2 50 31% 82 30.19 0.0
10 11:15 S 9 10.00 Fair CLR 82.4 50 32% 81 30.2 0.0
10 10:55 Vrbl 5 G 13 10.00 Fair CLR 80.6 46.4 30% 80 30.2 0.0
10 10:35 W 6 10.00 Fair CLR 82.4 50 32% 81 30.21 0.0
10 10:15 S 7 10.00 Fair CLR 71.6 41 33% 30.21 0.0
10 09:55 Vrbl 7 10.00 Fair CLR 68 39.2 35% 30.21 0.0
10 09:35 SW 5 10.00 Fair CLR 68 39.2 35% 30.21 0.0
10 09:15 SW 5 10.00 Fair CLR 78.8 48.2 34% 79 30.22 0.0
10 08:55 Calm 10.00 Fair CLR 78.8 48.2 34% 79 30.22 0.0
10 08:35 Calm 10.00 Fair CLR 77 48.2 36% 78 30.21 0.0
10 08:15 Calm 10.00 Fair CLR 77 50 39% 78 30.21 0.0
10 07:55 E 6 10.00 Fair CLR 75.2 50 41% 78 30.2 0.0
10 07:35 E 5 10.00 Fair CLR 71.6 50 47% 30.2 0.0
10 07:15 E 6 10.00 Fair CLR 68 50 53% 30.2 0.0
10 06:55 E 6 10.00 Fair CLR 64.4 50 60% 30.19 0.0
10 06:35 Calm 10.00 Fair CLR 62.6 48.2 60% 30.19 0.0
10 06:15 E 6 10.00 Fair CLR 62.6 48.2 60% 30.18 0.0
10 05:55 W 3 G 12 10.00 Partly Cloudy FEW029 FEW037 SCT050 62.6 48.2 60% 30.18 0.0
10 05:35 W 7 10.00 Mostly Cloudy FEW029 BKN039 BKN045 64.4 46.4 52% 30.17 0.0
10 05:15 Calm 10.00 Mostly Cloudy SCT041 BKN050 BKN060 64.4 44.6 49% 30.16 0.0
10 04:55 S 6 10.00 Mostly Cloudy SCT041 BKN049 BKN065 62.6 46.4 56% 30.15 0.0
10 04:35 SE 7 10.00 Mostly Cloudy SCT044 BKN055 BKN065 62.6 44.6 52% 30.16 0.0
10 04:15 SE 8 10.00 Mostly Cloudy FEW050 BKN060 BKN070 62.6 46.4 56% 30.17 0.0
10 03:55 SE 5 10.00 Partly Cloudy FEW048 FEW055 SCT070 62.6 48.2 60% 30.17 0.0
10 03:35 Calm 10.00 A Few Clouds FEW050 FEW055 FEW070 64.4 46.4 52% 30.17 0.0
10 03:15 W 3 10.00 A Few Clouds FEW050 FEW065 60.8 37.4 42% 30.16 0.0
10 02:55 Calm 10.00 Partly Cloudy FEW043 SCT050 SCT065 66.2 42.8 43% 30.15 0.0
10 02:35 W 5 G 13 10.00 Mostly Cloudy FEW043 SCT055 BKN095 68 42.8 40% 30.15 0.0
10 02:15 W 5 10.00 Mostly Cloudy FEW043 SCT060 BKN095 73.4 44.6 36% 30.15 0.0
10 01:55 N 6 10.00 Mostly Cloudy FEW035 SCT043 BKN055 73.4 44.6 36% 30.15 0.0
10 01:35 W 5 10.00 Mostly Cloudy FEW047 BKN055 75.2 44.6 34% 77 30.14 0.0
10 01:15 NE 3 10.00 Mostly Cloudy FEW047 BKN055 73.4 44.6 36% 30.15 0.0
10 00:55 N 8 10.00 Mostly Cloudy FEW041 SCT048 BKN055 73.4 44.6 36% 30.15 0.0
10 00:35 E 7 10.00 Mostly Cloudy SCT042 BKN049 73.4 44.6 36% 30.13 0.0
10 00:15 NE 8 10.00 Mostly Cloudy SCT046 BKN050 73.4 46.4 38% 30.14 0.0
09 23:55 NE 8 10.00 Mostly Cloudy BKN050 BKN055 73.4 46.4 38% 30.14 0.0
09 23:35 N 7 10.00 A Few Clouds FEW050 73.4 44.6 36% 30.15 0.0
09 23:15 NW 5 10.00 Fair CLR 59 30.2 34% 30.14 0.0
09 22:55 S 3 10.00 Fair CLR 62.6 33.8 34% 30.14 0.0
09 22:35 S 9 10.00 Fair CLR 77 46.4 34% 78 30.15 0.0
09 22:15 SW 7 10.00 Fair CLR 77 44.6 32% 78 30.15 0.0
09 21:55 Calm 10.00 Fair CLR 78.8 44.6 30% 79 30.13 0.0
09 21:35 W 6 10.00 Fair CLR 78.8 44.6 30% 79 30.12 0.0
09 21:15 Calm 10.00 Fair CLR 78.8 46.4 32% 79 30.11 0.0
09 20:55 Vrbl 6 G 18 10.00 Mostly Cloudy FEW026 SCT070 BKN120 78.8 46.4 32% 79 30.1 0.0
09 20:35 SE 6 10.00 Mostly Cloudy FEW050 SCT060 BKN090 77 48.2 36% 78 30.11 0.0
09 20:15 NW 9 G 18 10.00 Overcast SCT055 SCT070 OVC110 77 50 39% 78 30.13 0.0
09 19:55 W 12 G 22 10.00 Partly Cloudy FEW100 SCT120 77 46.4 34% 78 30.16 0.0
09 19:35 W 21 G 26 10.00 Fair and Breezy CLR 78.8 46.4 32% 79 30.13 0.0
09 19:15 W 22 G 31 6.00 A Few Clouds with Haze and Breezy FEW110 77 44.6 32% 78 30.11 0.0
09 18:55 W 29 G 41 1.75 Thunderstorm in Vicinity Haze and Windy BKN003 BKN110 75.2 42.8 31% 77 30.09 0.0
Date Time (mdt) Wind (mph) Vis. (mi.) Weather Sky Cond. Air Dwpt Max. Min. Relative Humidity Wind Chill (°F) Heat Index (°F) altimeter (in) sea level (mb) 1 hr 3 hr 6 hr
6 hour
Temperature (ºF) Pressure Precipitation (in)